Weather History for KAAA - December, 2013

Change the Weather History Date:

Tuesday, December 10, 2013

  Actual Average (KSPI) Record (KSPI)
Temperature  
Mean Temperature 16 °F 32 °F  
Max Temperature 30 °F 40 °F 67 °F (1889)
Min Temperature 3 °F 24 °F -7 °F (1917)
Degree Days  
Heating Degree Days 48 33  
Month to date heating degree days 315  
Since 1 July heating degree days 1383  
Cooling Degree Days 0 0  
Month to date cooling degree days 0  
Year to date cooling degree days 1122  
Moisture  
Dew Point 9 °F    
Average Humidity 66    
Maximum Humidity 85    
Minimum Humidity 47    
Precipitation  
Precipitation 0.00 in 0.10 in 1.56 in (1971)
Month to date precipitation 0.94  
Year to date precipitation 35.85  
Snow  
Snow 0.00 in 0.10 in 6.40 in (1944)
Month to date snowfall 1.3  
Since 1 July snowfall 1.9  
Snow Depth -    
Sea Level Pressure  
Sea Level Pressure 30.25 in    
Wind  
Wind Speed 4 mph (WSW)    
Max Wind Speed 14 mph    
Max Gust Speed 25 mph    
Visibility 10 miles    
Events      
T = Trace of Precipitation, MM = Missing Value Source: NWS Daily Summary

Daily Weather History Graph

Daily Weather History Graph

Search for Another Location

Airport or City:

Trip Planner

Search our weather history database for the weather conditions in past years. The results will help you decide how hot, cold, wet, or windy it might be!

Date:

Astronomy

Dec. 10, 2013 Rise Set
Actual Time 7:08 AM CST 4:31 PM CST
Civil Twilight 6:38 AM CST 5:02 PM CST
Nautical Twilight 6:04 AM CST 5:36 PM CST
Astronomical Twilight 5:31 AM CST 6:09 PM CST
Moon 12:33 PM CST (12/10) 12:26 AM CST (12/10)
Length of Visible Light 10h 23m
Length of Day
9h 22m
Waxing Gibbous, 62% of the Moon is Illuminated
Dec 10
Waxing Gibbous
Dec 17
Full
Dec 25
Last Quarter
Jan 1
New
Jan 7
First Quarter

Hourly Weather History & Observations

Time (CST) Temp. Windchill Dew Point Humidity Pressure Visibility Wind Dir Wind Speed Gust Speed Precip Events Conditions
12:15 AM 12.2 °F - 5.0 °F 73% 30.29 in 10.0 mi Calm Calm - N/A   Clear
12:35 AM 12.0 °F - 4.6 °F 72% 30.29 in 10.0 mi Calm Calm - N/A   Clear
12:55 AM 11.8 °F - 4.6 °F 73% 30.29 in 10.0 mi Calm Calm - N/A   Clear
1:15 AM 11.3 °F - 4.5 °F 74% 30.27 in 10.0 mi Calm Calm - N/A   Clear
1:35 AM 10.2 °F 3.8 °F 4.1 °F 76% 30.26 in 10.0 mi South 3.5 mph - N/A   Clear
1:55 AM 9.5 °F - 4.1 °F 79% 30.27 in 10.0 mi Calm Calm - N/A   Clear
2:15 AM 9.5 °F - 4.8 °F 81% 30.27 in 10.0 mi Calm Calm - N/A   Clear
2:35 AM 10.2 °F - 5.2 °F 80% 30.27 in 10.0 mi Calm Calm - N/A   Clear
2:55 AM 10.0 °F - 4.8 °F 79% 30.26 in 10.0 mi Calm Calm - N/A   Clear
3:15 AM 6.3 °F - 2.3 °F 84% 30.26 in 10.0 mi Calm Calm - N/A   Clear
3:35 AM 5.4 °F - 1.8 °F 85% 30.25 in 10.0 mi Calm Calm - N/A   Clear
3:55 AM 3.9 °F - 0.1 °F 84% 30.24 in 10.0 mi Calm Calm - N/A   Clear
4:35 AM 7.7 °F 1.0 °F 4.1 °F 85% 30.22 in 10.0 mi SSW 3.5 mph - N/A   Clear
4:55 AM 7.3 °F - 3.6 °F 85% 30.23 in 10.0 mi Calm Calm - N/A   Clear
5:15 AM 10.0 °F 1.8 °F 5.2 °F 81% 30.22 in 10.0 mi SW 4.6 mph - N/A   Clear
5:35 AM 11.1 °F 3.1 °F 5.5 °F 78% 30.22 in 10.0 mi SW 4.6 mph - N/A   Clear
5:55 AM 12.2 °F 2.9 °F 6.8 °F 79% 30.19 in 10.0 mi South 5.8 mph - N/A   Mostly Cloudy
6:15 AM 12.6 °F 0.2 °F 7.0 °F 78% 30.19 in 10.0 mi SSW 9.2 mph 16.1 mph N/A   Overcast
6:35 AM 13.6 °F -0.7 °F 6.6 °F 74% 30.17 in 10.0 mi SSW 12.7 mph 18.4 mph N/A   Overcast
6:55 AM 13.8 °F 2.7 °F 5.5 °F 70% 30.17 in 10.0 mi SSW 8.1 mph 17.3 mph N/A   Mostly Cloudy
7:15 AM 14.5 °F 1.9 °F 4.8 °F 65% 30.16 in 10.0 mi SSW 10.4 mph 19.6 mph N/A   Clear
7:35 AM 15.4 °F 2.3 °F 3.9 °F 60% 30.17 in 10.0 mi SW 11.5 mph 18.4 mph N/A   Clear
7:55 AM 16.2 °F 5.5 °F 4.1 °F 59% 30.17 in 10.0 mi SW 8.1 mph 16.1 mph N/A   Clear
8:15 AM 18.3 °F 8.2 °F 4.1 °F 54% 30.17 in 10.0 mi SW 8.1 mph 19.6 mph N/A   Scattered Clouds
8:35 AM 19.2 °F 7.7 °F 5.0 °F 54% 30.17 in 10.0 mi SW 10.4 mph 18.4 mph N/A   Clear
8:55 AM 20.1 °F 8.1 °F 5.7 °F 54% 30.18 in 10.0 mi SW 11.5 mph 19.6 mph N/A   Clear
9:15 AM 21.4 °F 9.7 °F 6.3 °F 52% 30.19 in 10.0 mi WSW 11.5 mph 21.9 mph N/A   Scattered Clouds
9:35 AM 23.2 °F 14.1 °F 7.5 °F 51% 30.19 in 10.0 mi WSW 8.1 mph 19.6 mph N/A   Overcast
9:55 AM 24.1 °F 13.7 °F 7.9 °F 50% 30.21 in 10.0 mi WSW 10.4 mph 19.6 mph N/A   Scattered Clouds
10:15 AM 25.2 °F 15.1 °F 8.8 °F 50% 30.19 in 10.0 mi West 10.4 mph 21.9 mph N/A   Clear
10:35 AM 26.8 °F 18.5 °F 10.9 °F 51% 30.20 in 10.0 mi West 8.1 mph 16.1 mph N/A   Clear
10:55 AM 27.3 °F 17.1 °F 11.3 °F 51% 30.20 in 10.0 mi West 11.5 mph 23.0 mph N/A   Clear
11:15 AM 28.0 °F 18.6 °F 12.0 °F 51% 30.21 in 10.0 mi West 10.4 mph 25.3 mph N/A   Clear
11:35 AM 28.4 °F 18.0 °F 12.2 °F 51% 30.20 in 10.0 mi West 12.7 mph 24.2 mph N/A   Clear
11:55 AM 29.7 °F 20.7 °F 12.9 °F 50% 30.19 in 10.0 mi West 10.4 mph 24.2 mph N/A   Clear
12:15 PM 30.0 °F 20.5 °F 12.2 °F 48% 30.20 in 10.0 mi West 11.5 mph 25.3 mph N/A   Clear
12:35 PM 30.2 °F 21.9 °F 12.7 °F 48% 30.20 in 10.0 mi West 9.2 mph 19.6 mph N/A   Clear
12:55 PM 30.2 °F 20.8 °F 12.7 °F 48% 30.21 in 10.0 mi West 11.5 mph 21.9 mph N/A   Clear
1:15 PM 30.2 °F 19.8 °F 12.0 °F 47% 30.21 in 10.0 mi West 13.8 mph 24.2 mph N/A   Clear
1:35 PM 30.7 °F 23.3 °F 13.3 °F 48% 30.21 in 10.0 mi West 8.1 mph 21.9 mph N/A   Clear
1:55 PM 30.2 °F 20.2 °F 12.0 °F 47% 30.21 in 10.0 mi West 12.7 mph 21.9 mph N/A   Clear
2:15 PM 30.6 °F 22.4 °F 13.5 °F 49% 30.21 in 10.0 mi West 9.2 mph 16.1 mph N/A   Clear
2:35 PM 30.4 °F 21.5 °F 12.6 °F 48% 30.22 in 10.0 mi West 10.4 mph 20.7 mph N/A   Clear
2:55 PM 30.2 °F 21.9 °F 12.0 °F 47% 30.24 in 10.0 mi West 9.2 mph 16.1 mph N/A   Clear
3:15 PM 29.8 °F 22.2 °F 11.8 °F 47% 30.24 in 10.0 mi West 8.1 mph 17.3 mph N/A   Clear
3:35 PM 29.7 °F 23.7 °F 12.4 °F 49% 30.25 in 10.0 mi West 5.8 mph - N/A   Clear
3:55 PM 28.8 °F 22.6 °F 13.3 °F 52% 30.25 in 10.0 mi WNW 5.8 mph - N/A   Clear
4:15 PM 27.5 °F 22.2 °F 12.9 °F 54% 30.26 in 10.0 mi WNW 4.6 mph - N/A   Clear
4:35 PM 26.4 °F 22.4 °F 12.2 °F 55% 30.25 in 10.0 mi West 3.5 mph - N/A   Clear
4:55 PM 25.5 °F - 12.2 °F 57% 30.24 in 10.0 mi Calm Calm - N/A   Clear
5:15 PM 24.8 °F - 12.2 °F 59% 30.25 in 10.0 mi Calm Calm - N/A   Clear
5:35 PM 23.9 °F - 12.6 °F 62% 30.25 in 10.0 mi Calm Calm - N/A   Clear
5:55 PM 22.1 °F - 12.2 °F 66% 30.26 in 10.0 mi Calm Calm - N/A   Clear
6:15 PM 21.6 °F - 12.7 °F 69% 30.27 in 10.0 mi Calm Calm - N/A   Clear
6:35 PM 16.7 °F - 10.9 °F 78% 30.28 in 10.0 mi Calm Calm - N/A   Clear
6:55 PM 18.5 °F - 12.4 °F 77% 30.28 in 10.0 mi Calm Calm - N/A   Clear
7:15 PM 17.2 °F - 11.1 °F 77% 30.30 in 10.0 mi Calm Calm - N/A   Clear
7:35 PM 18.0 °F - 12.2 °F 78% 30.31 in 10.0 mi Calm Calm - N/A   Clear
7:55 PM 17.6 °F - 11.3 °F 76% 30.32 in 10.0 mi Calm Calm - N/A   Clear
8:15 PM 15.1 °F - 9.0 °F 77% 30.32 in 10.0 mi Calm Calm - N/A   Clear
8:35 PM 14.5 °F - 9.1 °F 79% 30.32 in 10.0 mi Calm Calm - N/A   Clear
8:55 PM 13.8 °F - 8.6 °F 80% 30.32 in 10.0 mi Calm Calm - N/A   Clear
9:15 PM 13.8 °F - 8.4 °F 79% 30.33 in 10.0 mi Calm Calm - N/A   Clear
9:35 PM 14.2 °F - 9.3 °F 81% 30.32 in 10.0 mi Calm Calm - N/A   Scattered Clouds
9:55 PM 14.9 °F - 10.0 °F 81% 30.33 in 10.0 mi Calm Calm - N/A   Mostly Cloudy
10:15 PM 16.7 °F - 11.1 °F 79% 30.33 in 10.0 mi Calm Calm - N/A   Overcast
10:35 PM 17.2 °F - 11.7 °F 79% 30.33 in 10.0 mi Calm Calm - N/A   Overcast
10:55 PM 18.3 °F - 12.7 °F 79% 30.34 in 10.0 mi Calm Calm - N/A   Overcast
11:15 PM 19.4 °F - 13.8 °F 79% 30.33 in 10.0 mi Calm Calm - N/A   Overcast
11:35 PM 20.3 °F - 14.7 °F 79% 30.32 in 10.0 mi Calm Calm - N/A   Overcast
11:55 PM 20.8 °F - 14.9 °F 78% 30.32 in 10.0 mi Calm Calm - N/A   Mostly Cloudy